Location: Observatory
(52.1446°N, 0.4624°W)
Time: 11:21:05
(UTC+01:00)

ISS - Pass Details

Date: 07 July 2020
Orbit: 417 x 420 km, 51.6° (Epoch: 02 July)

Event Time Altitude Azimuth Distance (km) Brightness Sun altitude
Exits shadow 03:09:42 13° 240° (WSW) 1,316 -1.8 -10.6°
Maximum altitude 03:12:33 57° 163° (SSE) 499 -3.6 -10.4°
Drops below altitude 10° 03:15:51 10° 84° (E) 1,498 -0.4 -10.2°
Sets 03:17:58 0° 80° (E) 2,363 0.7 -10.0°
